Overview Statistics Trail Chart Weather Telemetry Raw packets
 

This is the latest recevied weather packets stored in our database for station/object K2CAT. If no packets are shown the sender has not sent any weather packets the latest 10 day(s).

<< 73 74 75 76 77 78 79 >>
Time Temp. Humidity Pressure Rain* Wind** Luminosity Snow
1777186410 5.56° C 99% 1018.8 hPa 1.78 mm - 0 W/m² -
1777186105 5.56° C 99% 1018.9 hPa 0 mm - 0 W/m² -
1777185801 5.56° C 99% 1018.8 hPa 0 mm - 0 W/m² -
1777185498 5.56° C 99% 1018.7 hPa 0 mm - 0 W/m² -
1777185193 5.56° C 99% 1018.9 hPa 0 mm - 0 W/m² -
1777184889 5.56° C 99% 1018.8 hPa 1.27 mm - 0 W/m² -
1777184583 5.56° C 99% 1019.1 hPa 1.27 mm - 0 W/m² -
1777184277 5.56° C 99% 1018.9 hPa 1.78 mm - 0 W/m² -
1777183974 5.56° C 99% 1018.9 hPa 1.78 mm - 0 W/m² -
1777183670 5.56° C 99% 1018.9 hPa 1.78 mm - 0 W/m² -
1777183366 5.56° C 99% 1019 hPa 0 mm - 0 W/m² -
1777183061 5.56° C 99% 1018.9 hPa 1.27 mm - 0 W/m² -
1777182757 5.56° C 99% 1019.1 hPa 1.27 mm - 0 W/m² -
1777182453 5.56° C 99% 1019.1 hPa 1.78 mm - 0 W/m² -
1777182150 5.56° C 99% 1019.2 hPa 3.05 mm - 0 W/m² -
1777181846 5.56° C 99% 1019.1 hPa 3.05 mm - 0 W/m² -
1777181543 5.56° C 99% 1018.9 hPa 4.83 mm - 0 W/m² -
1777181242 5.56° C 99% 1019.3 hPa 3.05 mm - 0 W/m² -
1777180938 5.56° C 99% 1019.1 hPa 1.27 mm - 0 W/m² -
1777180634 5.56° C 99% 1019.2 hPa 1.78 mm - 0 W/m² -
1777180330 5.56° C 99% 1019.4 hPa 1.78 mm - 0 W/m² -
1777180028 5.56° C 99% 1019.3 hPa 1.27 mm - 0 W/m² -
1777179723 5.56° C 99% 1019.2 hPa 3.05 mm - 0 W/m² -
1777179423 5.56° C 99% 1019.4 hPa 3.05 mm - 0 W/m² -
1777179122 5.56° C 99% 1019.3 hPa 3.05 mm - 0 W/m² -

* Rain latest hour (hover to see other rain measurements)
** Current wind speed in m/s (hover to see current wind gust speed)